Time,TemperatureF,DewpointF,PressureIn,WindDirection,WindDirectionDegrees,WindSpeedMPH,WindSpeedGustMPH,Humidity,HourlyPrecipIn,Conditions,Clouds,dailyrainin,SoftwareType,DateUTC
2013-06-06 00:03:00,70.0,69.0,29.93,SE,146,0.0,0.0,97,0.00,,,0.35,,2013-06-06 04:03:00,
2013-06-06 00:13:00,70.0,69.0,29.93,SE,146,0.0,0.0,97,0.00,,,0.35,,2013-06-06 04:13:00,
2013-06-06 00:23:00,70.0,69.0,29.93,SW,228,0.0,0.0,97,0.00,,,0.35,,2013-06-06 04:23:00,
2013-06-06 00:33:00,70.0,69.0,29.93,West,280,1.0,4.0,97,0.00,,,0.35,,2013-06-06 04:33:00,
2013-06-06 00:42:00,70.0,69.0,29.93,West,280,1.0,4.0,97,0.00,,,0.35,,2013-06-06 04:42:00,
2013-06-06 00:53:00,69.0,68.0,29.93,WNW,288,0.0,6.0,96,0.00,,,0.35,,2013-06-06 04:53:00,
2013-06-06 01:02:00,68.0,66.0,29.93,WNW,288,0.0,5.0,94,0.04,,,0.39,,2013-06-06 05:02:00,
2013-06-06 01:12:00,68.0,66.0,29.93,WNW,288,0.0,5.0,94,0.04,,,0.39,,2013-06-06 05:12:00,
2013-06-06 01:23:00,68.0,66.0,29.92,WNW,288,0.0,1.0,94,0.05,,,0.40,,2013-06-06 05:23:00,
2013-06-06 01:32:00,67.0,65.0,29.91,WNW,288,0.0,1.0,93,0.05,,,0.40,,2013-06-06 05:32:00,
2013-06-06 01:42:00,67.0,65.0,29.91,WNW,288,0.0,1.0,93,0.05,,,0.40,,2013-06-06 05:42:00,
2013-06-06 01:52:00,67.0,65.0,29.91,WNW,288,0.0,0.0,94,0.05,,,0.40,,2013-06-06 05:52:00,
2013-06-06 02:02:00,67.0,65.0,29.90,WNW,288,0.0,0.0,94,0.01,,,0.40,,2013-06-06 06:02:00,
2013-06-06 02:12:00,67.0,65.0,29.90,WNW,288,0.0,0.0,94,0.01,,,0.40,,2013-06-06 06:12:00,
2013-06-06 02:22:00,66.0,65.0,29.89,WNW,288,0.0,0.0,95,0.00,,,0.40,,2013-06-06 06:22:00,
2013-06-06 02:33:00,66.0,65.0,29.88,WNW,288,0.0,0.0,95,0.00,,,0.40,,2013-06-06 06:33:00,
2013-06-06 02:42:00,66.0,65.0,29.88,WNW,288,0.0,0.0,95,0.00,,,0.40,,2013-06-06 06:42:00,
2013-06-06 02:52:00,66.0,65.0,29.88,WNW,288,0.0,0.0,95,0.00,,,0.40,,2013-06-06 06:52:00,
2013-06-06 03:02:00,66.0,65.0,29.88,WNW,288,0.0,0.0,96,0.00,,,0.40,,2013-06-06 07:02:00,
2013-06-06 03:12:00,66.0,65.0,29.88,WNW,288,0.0,0.0,96,0.00,,,0.40,,2013-06-06 07:12:00,
2013-06-06 03:22:00,66.0,65.0,29.87,WNW,288,0.0,0.0,96,0.00,,,0.40,,2013-06-06 07:22:00,
2013-06-06 03:32:00,66.0,65.0,29.87,WNW,298,2.0,7.0,96,0.10,,,0.50,,2013-06-06 07:32:00,
2013-06-06 03:42:00,66.0,65.0,29.87,WNW,298,2.0,7.0,96,0.10,,,0.50,,2013-06-06 07:42:00,
2013-06-06 03:52:00,66.0,65.0,29.86,WNW,298,0.0,0.0,96,0.18,,,0.57,,2013-06-06 07:52:00,
2013-06-06 04:02:00,66.0,65.0,29.85,WNW,298,0.0,1.0,96,0.23,,,0.63,,2013-06-06 08:02:00,
2013-06-06 04:12:00,66.0,65.0,29.85,WNW,298,0.0,1.0,96,0.23,,,0.63,,2013-06-06 08:12:00,
2013-06-06 04:22:00,66.0,65.0,29.85,WNW,298,0.0,1.0,96,0.23,,,0.63,,2013-06-06 08:22:00,
2013-06-06 04:32:00,66.0,65.0,29.84,WNW,298,1.0,3.0,96,0.13,,,0.63,,2013-06-06 08:32:00,
2013-06-06 04:42:00,66.0,65.0,29.84,WNW,298,0.0,0.0,97,0.07,,,0.65,,2013-06-06 08:42:00,
2013-06-06 04:52:00,66.0,65.0,29.84,WNW,298,0.0,0.0,97,0.07,,,0.65,,2013-06-06 08:52:00,
2013-06-06 05:02:00,66.0,65.0,29.83,WNW,298,0.0,0.0,97,0.02,,,0.65,,2013-06-06 09:02:00,
2013-06-06 05:12:00,66.0,65.0,29.83,WNW,298,0.0,0.0,97,0.02,,,0.65,,2013-06-06 09:12:00,
2013-06-06 05:22:00,66.0,65.0,29.83,WNW,298,0.0,0.0,97,0.02,,,0.65,,2013-06-06 09:22:00,
2013-06-06 05:33:00,66.0,65.0,29.83,WNW,298,0.0,1.0,97,0.02,,,0.65,,2013-06-06 09:33:00,
2013-06-06 05:43:00,66.0,65.0,29.83,WNW,298,0.0,1.0,97,0.02,,,0.65,,2013-06-06 09:43:00,
2013-06-06 05:53:00,66.0,65.0,29.83,West,281,0.0,4.0,97,0.00,,,0.65,,2013-06-06 09:53:00,
2013-06-06 06:03:00,66.0,65.0,29.83,West,281,0.0,2.0,97,0.00,,,0.65,,2013-06-06 10:03:00,
2013-06-06 06:12:00,66.0,65.0,29.83,West,281,0.0,2.0,97,0.00,,,0.65,,2013-06-06 10:12:00,
2013-06-06 06:23:00,66.0,65.0,29.83,West,280,0.0,1.0,97,0.00,,,0.65,,2013-06-06 10:23:00,
2013-06-06 06:33:00,66.0,65.0,29.84,West,280,0.0,0.0,97,0.00,,,0.65,,2013-06-06 10:33:00,
2013-06-06 06:42:00,66.0,65.0,29.84,West,280,0.0,0.0,97,0.00,,,0.65,,2013-06-06 10:42:00,
2013-06-06 06:52:00,66.0,65.0,29.83,West,280,0.0,0.0,97,0.00,,,0.65,,2013-06-06 10:52:00,
2013-06-06 07:02:00,66.0,65.0,29.83,West,280,0.0,0.0,97,0.00,,,0.65,,2013-06-06 11:02:00,
2013-06-06 07:12:00,66.0,65.0,29.83,West,280,0.0,0.0,97,0.00,,,0.65,,2013-06-06 11:12:00,
2013-06-06 07:23:00,66.0,65.0,29.83,West,280,0.0,0.0,97,0.00,,,0.65,,2013-06-06 11:23:00,
2013-06-06 07:32:00,66.0,65.0,29.83,West,280,0.0,0.0,97,0.01,,,0.66,,2013-06-06 11:32:00,
2013-06-06 07:42:00,66.0,65.0,29.83,West,280,0.0,0.0,97,0.01,,,0.66,,2013-06-06 11:42:00,
2013-06-06 07:52:00,66.0,65.0,29.83,West,280,0.0,0.0,97,0.02,,,0.67,,2013-06-06 11:52:00,
2013-06-06 08:03:00,67.0,66.0,29.83,West,280,0.0,0.0,97,0.02,,,0.67,,2013-06-06 12:03:00,
2013-06-06 08:13:00,67.0,66.0,29.83,West,280,0.0,0.0,97,0.02,,,0.67,,2013-06-06 12:13:00,
2013-06-06 08:23:00,67.0,66.0,29.83,West,280,0.0,0.0,98,0.02,,,0.67,,2013-06-06 12:23:00,
2013-06-06 08:33:00,67.0,66.0,29.83,West,280,0.0,0.0,97,0.01,,,0.67,,2013-06-06 12:33:00,
2013-06-06 08:43:00,67.0,66.0,29.83,West,280,0.0,0.0,97,0.01,,,0.67,,2013-06-06 12:43:00,
2013-06-06 08:52:00,67.0,66.0,29.84,West,280,0.0,0.0,97,0.00,,,0.67,,2013-06-06 12:52:00,
2013-06-06 09:03:00,68.0,67.0,29.83,West,280,0.0,0.0,98,0.01,,,0.68,,2013-06-06 13:03:00,
2013-06-06 09:13:00,68.0,67.0,29.83,West,280,0.0,0.0,98,0.01,,,0.68,,2013-06-06 13:13:00,
2013-06-06 09:23:00,68.0,67.0,29.83,West,280,0.0,0.0,98,0.01,,,0.68,,2013-06-06 13:23:00,
2013-06-06 09:33:00,68.0,67.0,29.83,West,280,0.0,0.0,98,0.01,,,0.68,,2013-06-06 13:33:00,
2013-06-06 09:43:00,68.0,67.0,29.83,West,280,0.0,0.0,98,0.01,,,0.68,,2013-06-06 13:43:00,
2013-06-06 09:52:00,69.0,68.0,29.83,West,280,0.0,1.0,98,0.01,,,0.68,,2013-06-06 13:52:00,
2013-06-06 10:03:00,69.0,68.0,29.83,West,280,0.0,1.0,98,0.00,,,0.68,,2013-06-06 14:03:00,
2013-06-06 10:13:00,69.0,68.0,29.83,West,280,0.0,1.0,98,0.00,,,0.68,,2013-06-06 14:13:00,
2013-06-06 10:23:00,69.0,68.0,29.83,West,280,0.0,1.0,98,0.00,,,0.68,,2013-06-06 14:23:00,
2013-06-06 10:33:00,70.0,69.0,29.83,West,280,0.0,2.0,98,0.00,,,0.68,,2013-06-06 14:33:00,
2013-06-06 10:43:00,70.0,69.0,29.83,West,280,0.0,2.0,98,0.00,,,0.68,,2013-06-06 14:43:00,
2013-06-06 10:53:00,70.0,69.0,29.83,West,280,0.0,0.0,98,0.00,,,0.68,,2013-06-06 14:53:00,
2013-06-06 11:03:00,70.0,69.0,29.83,West,280,0.0,0.0,97,0.00,,,0.68,,2013-06-06 15:03:00,
2013-06-06 11:13:00,70.0,69.0,29.83,West,280,0.0,0.0,97,0.00,,,0.68,,2013-06-06 15:13:00,
2013-06-06 11:23:00,70.0,69.0,29.83,West,280,0.0,0.0,97,0.00,,,0.68,,2013-06-06 15:23:00,
2013-06-06 11:33:00,71.0,70.0,29.84,WSW,242,0.0,3.0,96,0.00,,,0.68,,2013-06-06 15:33:00,
2013-06-06 11:43:00,71.0,70.0,29.84,WSW,242,0.0,3.0,96,0.00,,,0.68,,2013-06-06 15:43:00,
2013-06-06 11:53:00,71.0,70.0,29.84,SW,227,0.0,4.0,96,0.00,,,0.68,,2013-06-06 15:53:00,
2013-06-06 12:03:00,72.0,71.0,29.84,WSW,237,0.0,4.0,96,0.00,,,0.68,,2013-06-06 16:03:00,
2013-06-06 12:13:00,72.0,71.0,29.84,WSW,237,0.0,4.0,96,0.00,,,0.68,,2013-06-06 16:13:00,
2013-06-06 12:23:00,73.0,71.0,29.84,West,273,2.0,8.0,94,0.00,,,0.68,,2013-06-06 16:23:00,
2013-06-06 12:33:00,73.0,71.0,29.84,WNW,302,3.0,6.0,93,0.00,,,0.68,,2013-06-06 16:33:00,
2013-06-06 12:44:00,73.0,71.0,29.84,WNW,302,3.0,6.0,93,0.00,,,0.68,,2013-06-06 16:44:00,
2013-06-06 12:52:00,74.0,71.0,29.83,WNW,289,3.0,7.0,91,0.00,,,0.68,,2013-06-06 16:52:00,
2013-06-06 13:03:00,75.0,72.0,29.83,West,265,1.0,8.0,90,0.00,,,0.68,,2013-06-06 17:03:00,
2013-06-06 13:13:00,75.0,72.0,29.83,West,265,1.0,8.0,90,0.00,,,0.68,,2013-06-06 17:13:00,
2013-06-06 13:23:00,75.0,72.0,29.82,West,265,2.0,6.0,90,0.00,,,0.68,,2013-06-06 17:23:00,
2013-06-06 13:33:00,75.0,71.0,29.82,West,268,3.0,8.0,88,0.00,,,0.68,,2013-06-06 17:33:00,
2013-06-06 13:43:00,75.0,71.0,29.82,West,268,3.0,8.0,88,0.00,,,0.68,,2013-06-06 17:43:00,
2013-06-06 13:52:00,75.0,71.0,29.81,WSW,246,3.0,8.0,87,0.00,,,0.68,,2013-06-06 17:52:00,
2013-06-06 14:03:00,74.0,70.0,29.82,South,190,8.0,15.0,87,0.04,,,0.72,,2013-06-06 18:03:00,
2013-06-06 14:13:00,74.0,70.0,29.82,South,190,8.0,15.0,87,0.04,,,0.72,,2013-06-06 18:13:00,
2013-06-06 14:23:00,71.0,69.0,29.82,WSW,254,1.0,14.0,92,0.11,,,0.79,,2013-06-06 18:23:00,
2013-06-06 14:33:00,72.0,70.0,29.81,WSW,253,2.0,7.0,95,0.11,,,0.79,,2013-06-06 18:33:00,
2013-06-06 14:43:00,72.0,70.0,29.81,WSW,253,2.0,7.0,95,0.11,,,0.79,,2013-06-06 18:43:00,
2013-06-06 14:53:00,72.0,70.0,29.81,WSW,253,2.0,7.0,95,0.11,,,0.79,,2013-06-06 18:53:00,
2013-06-06 15:03:00,73.0,71.0,29.80,South,182,6.0,10.0,93,0.06,,,0.79,,2013-06-06 19:03:00,
2013-06-06 15:13:00,73.0,71.0,29.80,South,182,6.0,10.0,93,0.06,,,0.79,,2013-06-06 19:13:00,
2013-06-06 15:23:00,74.0,70.0,29.80,WNW,294,5.0,18.0,87,0.01,,,0.80,,2013-06-06 19:23:00,
2013-06-06 15:33:00,75.0,70.0,29.79,SW,217,2.0,10.0,85,0.01,,,0.80,,2013-06-06 19:33:00,
2013-06-06 15:43:00,75.0,70.0,29.79,SW,217,2.0,10.0,85,0.01,,,0.80,,2013-06-06 19:43:00,
2013-06-06 15:53:00,76.0,70.0,29.79,SSW,208,3.0,8.0,83,0.01,,,0.80,,2013-06-06 19:53:00,
2013-06-06 16:03:00,77.0,71.0,29.78,West,267,3.0,11.0,83,0.01,,,0.80,,2013-06-06 20:03:00,
2013-06-06 16:13:00,77.0,71.0,29.78,West,267,3.0,11.0,83,0.01,,,0.80,,2013-06-06 20:13:00,
2013-06-06 16:23:00,77.0,71.0,29.78,SW,229,3.0,7.0,81,0.00,,,0.80,,2013-06-06 20:23:00,
2013-06-06 16:33:00,77.0,71.0,29.78,SSW,213,4.0,7.0,81,0.00,,,0.80,,2013-06-06 20:33:00,
2013-06-06 16:43:00,77.0,71.0,29.78,SSW,213,4.0,7.0,81,0.00,,,0.80,,2013-06-06 20:43:00,
2013-06-06 16:53:00,76.0,70.0,29.78,South,190,5.0,9.0,82,0.00,,,0.80,,2013-06-06 20:53:00,
2013-06-06 17:03:00,76.0,70.0,29.78,SW,233,4.0,7.0,81,0.00,,,0.80,,2013-06-06 21:03:00,
2013-06-06 17:13:00,76.0,70.0,29.78,SW,233,4.0,7.0,81,0.00,,,0.80,,2013-06-06 21:13:00,
2013-06-06 17:23:00,76.0,70.0,29.77,SSW,196,5.0,9.0,82,0.00,,,0.80,,2013-06-06 21:23:00,
2013-06-06 17:33:00,76.0,70.0,29.77,SSW,208,4.0,13.0,83,0.00,,,0.80,,2013-06-06 21:33:00,
2013-06-06 17:44:00,76.0,70.0,29.77,SSW,208,4.0,13.0,83,0.00,,,0.80,,2013-06-06 21:44:00,
2013-06-06 17:53:00,76.0,70.0,29.77,South,189,6.0,10.0,81,0.00,,,0.80,,2013-06-06 21:53:00,
2013-06-06 18:03:00,76.0,70.0,29.76,SSW,212,4.0,14.0,81,0.00,,,0.80,,2013-06-06 22:03:00,
2013-06-06 18:13:00,76.0,70.0,29.76,SSW,212,4.0,14.0,81,0.00,,,0.80,,2013-06-06 22:13:00,
2013-06-06 18:23:00,75.0,69.0,29.76,South,175,6.0,14.0,81,0.00,,,0.80,,2013-06-06 22:23:00,
2013-06-06 18:33:00,75.0,69.0,29.75,SW,218,2.0,9.0,82,0.00,,,0.79,,2013-06-06 22:33:00,
2013-06-06 18:43:00,75.0,69.0,29.75,SW,218,2.0,9.0,82,0.00,,,0.79,,2013-06-06 22:43:00,
2013-06-06 18:53:00,75.0,69.0,29.75,SW,236,1.0,6.0,83,0.00,,,0.79,,2013-06-06 22:53:00,
2013-06-06 19:03:00,76.0,70.0,29.75,SSW,211,2.0,4.0,83,0.00,,,0.79,,2013-06-06 23:03:00,
2013-06-06 19:13:00,76.0,70.0,29.75,SSW,211,2.0,4.0,83,0.00,,,0.79,,2013-06-06 23:13:00,
2013-06-06 19:22:00,75.0,69.0,29.75,South,188,3.0,7.0,83,0.00,,,0.79,,2013-06-06 23:22:00,
2013-06-06 19:33:00,75.0,70.0,29.75,WSW,248,0.0,4.0,84,0.00,,,0.62,,2013-06-06 23:33:00,
2013-06-06 19:43:00,75.0,70.0,29.75,WSW,248,0.0,4.0,84,0.00,,,0.62,,2013-06-06 23:43:00,
2013-06-06 19:52:00,75.0,70.0,29.75,SSW,194,1.0,5.0,84,0.00,,,0.62,,2013-06-06 23:52:00,
2013-06-06 20:02:00,75.0,70.0,29.75,South,175,0.0,4.0,85,0.00,,,0.62,,2013-06-07 00:02:00,
2013-06-06 20:13:00,75.0,70.0,29.75,South,175,0.0,4.0,85,0.00,,,0.62,,2013-06-07 00:13:00,
2013-06-06 20:22:00,74.0,70.0,29.75,SSE,156,1.0,3.0,86,0.00,,,0.62,,2013-06-07 00:22:00,
2013-06-06 20:32:00,74.0,70.0,29.75,SE,130,1.0,5.0,88,0.00,,,0.51,,2013-06-07 00:32:00,
2013-06-06 20:42:00,74.0,70.0,29.75,SE,130,1.0,5.0,88,0.00,,,0.51,,2013-06-07 00:42:00,
2013-06-06 20:52:00,74.0,71.0,29.75,SE,137,2.0,5.0,89,0.00,,,0.51,,2013-06-07 00:52:00,
2013-06-06 21:03:00,73.0,70.0,29.74,SE,129,3.0,5.0,90,0.00,,,0.51,,2013-06-07 01:03:00,
2013-06-06 21:12:00,73.0,70.0,29.74,SE,129,3.0,5.0,90,0.00,,,0.51,,2013-06-07 01:12:00,
2013-06-06 21:22:00,73.0,70.0,29.75,ESE,115,3.0,7.0,91,0.00,,,0.51,,2013-06-07 01:22:00,
2013-06-06 21:32:00,72.0,68.0,29.75,South,178,4.0,13.0,88,0.00,,,0.46,,2013-06-07 01:32:00,
2013-06-06 21:42:00,72.0,68.0,29.75,South,178,4.0,13.0,88,0.00,,,0.46,,2013-06-07 01:42:00,
2013-06-06 21:52:00,70.0,67.0,29.75,SSW,192,2.0,7.0,91,0.01,,,0.47,,2013-06-07 01:52:00,
2013-06-06 22:02:00,70.0,68.0,29.75,SSW,192,0.0,1.0,93,0.02,,,0.48,,2013-06-07 02:02:00,
2013-06-06 22:12:00,70.0,68.0,29.75,SSW,192,0.0,1.0,93,0.02,,,0.48,,2013-06-07 02:12:00,
2013-06-06 22:22:00,70.0,68.0,29.75,SSW,192,1.0,3.0,94,0.03,,,0.49,,2013-06-07 02:22:00,
2013-06-06 22:32:00,70.0,68.0,29.75,SSW,192,0.0,3.0,94,0.03,,,0.48,,2013-06-07 02:32:00,
2013-06-06 22:42:00,70.0,68.0,29.75,SSW,192,0.0,3.0,94,0.03,,,0.48,,2013-06-07 02:42:00,
2013-06-06 22:52:00,69.0,68.0,29.75,SSE,155,0.0,3.0,95,0.02,,,0.48,,2013-06-07 02:52:00,
2013-06-06 23:02:00,69.0,68.0,29.75,SE,124,1.0,4.0,95,0.01,,,0.48,,2013-06-07 03:02:00,
2013-06-06 23:12:00,69.0,68.0,29.75,SE,124,1.0,4.0,95,0.01,,,0.48,,2013-06-07 03:12:00,
2013-06-06 23:22:00,69.0,68.0,29.75,SE,125,0.0,3.0,95,0.01,,,0.49,,2013-06-07 03:22:00,
2013-06-06 23:33:00,69.0,68.0,29.75,SE,125,0.0,0.0,95,0.02,,,0.50,,2013-06-07 03:33:00,
2013-06-06 23:43:00,69.0,68.0,29.75,SE,125,0.0,0.0,95,0.02,,,0.50,,2013-06-07 03:43:00,
2013-06-06 23:53:00,69.0,68.0,29.75,SE,125,0.0,0.0,95,0.03,,,0.51,,2013-06-07 03:53:00,